Wind_Speed
6 2 3 5 8 10 11 13 14 14 16 13 9 12 12 11 13 14 13 14 13 14 13 14 16 19 13 10 12 15 14 14 15
7 6 3 3 7 12 13 13 13 14 12 13 8 8 9 10 11 12 15 13 12 13 13 15 14 13 13 14 16 15 15 15 16
10 10 6 4 8 11 14 14 13 13 13 11 10 8 9 10 12 12 13 11 10 8 7 8 9 8 10 14 19 18 21 19 21
14 11 12 13 11 11 13 14 13 14 15 12 10 9 9 10 12 13 12 11 9 10 10 9 9 9 9 15 18 20 24 21 21
14 11 12 11 5 5 9 14 13 13 13 13 11 11 10 11 12 13 13 11 10 10 11 10 9 8 9 9 12 15 19 19 23
16 16 7 2 1 4 7 10 13 13 14 12 10 10 10 10 11 13 13 12 12 12 11 10 9 9 8 6 8 10 13 16 17
15 11 3 3 3 2 7 9 13 15 14 12 10 8 8 10 11 12 14 14 14 13 12 10 10 9 9 6 4 9 14 15 18
16 14 11 5 4 5 9 14 14 16 16 15 12 9 7 9 11 11 13 14 15 14 12 12 12 13 11 10 7 6 4 9 14
13 16 14 11 8 6 9 13 18 19 23 17 13 12 9 8 9 11 11 12 12 12 12 12 12 13 13 12 10 11 9 7 9
11 10 15 11 10 12 11 13 17 20 20 17 12 14 12 10 10 10 11 12 13 12 11 13 14 15 15 15 13 15 15 12 11
17 14 12 17 15 14 15 15 18 21 17 19 18 17 15 13 12 12 11 11 11 11 12 12 14 15 14 15 16 17 17 17 17
21 21 19 17 16 17 19 18 18 19 21 17 18 19 22 20 17 16 17 15 15 14 13 13 13 15 17 18 21 22 21 21 20
25 24 22 19 20 23 25 26 25 22 22 24 24 21 19 22 25 22 24 25 21 17 20 20 18 18 21 23 24 24 24 26 23
28 26 26 28 30 31 33 32 31 30 23 25 28 28 29 28 26 29 29 28 25 25 23 23 25 22 23 28 30 27 27 29 28
34 33 33 34 29 29 29 31 33 31 34 30 30 31 28 29 30 34 36 34 33 29 25 26 23 22 27 29 35 34 31 31 31
34 34 32 30 29 27 28 31 35 36 36 40 41 38 36 36 35 43 45 44 43 35 28 18 22 22 25 31 35 34 36 33 33
33 32 30 27 27 27 30 34 37 40 41 44 47 48 50 44 49 47 51 51 53 51 23 21 22 21 25 24 32 43 42 42 36
35 34 30 27 29 29 29 34 39 44 45 47 48 51 45 50 55 56 61 63 73 48 30 22 21 21 25 27 22 36 49 47 40
34 31 32 33 35 36 37 39 34 37 39 35 40 45 55 52 54 57 61 37 22 32 24 20 22 22 25 26 29 30 44 43 41
32 33 36 34 35 39 40 39 37 36 37 37 44 46 45 45 43 37 40 25 23 24 27 24 23 26 30 26 27 24 26 34 41
Wind_Direction
303 335 88 69 30 15 2 358 349 328 334 336 275 262 265 276 284 283 273 266 270 271 271 278 268 267 271 266 245 241 243 248 255
263 283 227 264 350 347 347 344 339 342 326 331 308 268 257 267 275 271 263 260 270 272 268 264 262 260 260 261 256 253 247 255 248
253 281 253 280 308 326 334 332 334 337 331 321 317 291 268 264 268 265 257 262 252 257 274 261 256 254 257 257 254 253 255 257 250
245 258 268 264 294 310 306 315 322 326 329 315 318 283 285 276 265 261 252 248 242 255 255 254 259 256 283 267 254 253 247 252 252
239 228 248 271 281 283 299 296 306 312 315 312 298 309 281 291 274 257 245 243 243 252 253 258 249 265 292 276 254 248 249 255 252
220 221 224 249 341 315 317 312 309 321 322 314 298 291 285 277 276 260 246 244 244 243 247 247 251 263 278 277 248 241 236 234 239
240 244 231 317 36 0 351 328 313 312 314 313 301 289 283 269 274 261 249 239 235 236 238 242 246 249 253 253 244 239 240 243 235
264 264 264 277 317 315 354 0 338 323 320 312 306 298 290 272 258 259 259 253 245 238 238 244 244 245 246 253 259 279 285 263 247
248 254 265 279 288 302 332 356 358 327 322 313 312 302 286 272 264 249 244 251 253 251 246 251 246 245 250 259 269 271 271 284 272
246 248 253 271 279 301 314 338 337 343 328 317 307 313 310 291 275 267 253 250 255 255 253 257 262 264 263 264 271 274 271 271 271
256 253 260 257 265 283 301 318 325 334 328 324 305 299 310 306 290 279 275 272 265 263 263 269 275 279 280 284 288 287 271 273 267
240 247 246 252 263 275 289 304 307 315 314 311 316 325 313 301 291 283 278 266 268 269 270 271 277 285 288 287 289 294 285 275 268
249 250 258 265 258 275 280 294 299 300 298 301 303 312 301 302 294 280 291 296 277 265 265 260 255 258 264 270 276 285 289 285 276
257 260 265 268 270 275 279 280 290 291 288 286 289 299 301 300 303 289 277 278 273 272 268 275 280 271 271 262 255 256 268 277 278
267 267 268 272 271 271 274 274 275 282 287 281 280 278 281 283 283 287 287 281 275 271 267 269 272 293 298 287 255 251 248 256 264
267 267 266 267 267 269 270 269 269 271 279 283 280 277 281 279 273 276 273 277 280 259 258 281 279 285 292 295 267 244 244 239 248
263 265 266 266 267 270 270 266 265 270 272 273 278 277 283 265 274 271 277 282 269 259 241 251 270 274 285 295 268 245 249 249 243
265 265 264 258 266 270 276 283 276 269 271 271 266 270 269 271 273 276 279 276 284 276 240 253 259 268 284 284 299 255 248 254 257
262 262 262 257 263 276 287 296 286 285 282 282 280 275 268 268 269 274 275 292 263 246 251 258 267 274 283 287 290 281 247 246 250
261 265 265 268 271 277 287 289 290 280 283 291 292 281 267 260 266 267 281 278 260 256 259 265 266 278 287 282 285 282 266 247 249
Height
5900 5899 5899 5897 5895 5893 5891 5888 5886 5884 5881 5878 5877 5877 5878 5878 5877 5876 5876 5875 5875 5876 5876 5876 5875 5874 5875 5876 5879 5882 5883 5884 5886
5899 5899 5897 5896 5894 5892 5890 5887 5885 5882 5880 5878 5876 5876 5875 5874 5874 5873 5873 5872 5872 5873 5872 5873 5873 5873 5874 5875 5877 5878 5879 5880 5881
5897 5897 5896 5895 5893 5891 5889 5886 5884 5881 5879 5877 5875 5874 5873 5871 5870 5870 5870 5869 5869 5870 5870 5870 5871 5871 5871 5871 5872 5873 5874 5875 5876
5894 5894 5893 5892 5891 5889 5887 5884 5881 5878 5876 5874 5872 5871 5870 5869 5867 5867 5867 5867 5867 5868 5869 5869 5868 5869 5867 5867 5867 5867 5869 5870 5872
5890 5890 5891 5889 5888 5886 5885 5882 5879 5876 5873 5870 5868 5867 5866 5866 5865 5865 5865 5865 5866 5866 5867 5866 5866 5866 5865 5863 5862 5862 5863 5864 5866
5887 5887 5886 5886 5885 5883 5882 5880 5877 5873 5870 5868 5866 5864 5863 5863 5862 5862 5862 5863 5864 5864 5864 5864 5864 5863 5863 5862 5861 5860 5860 5861 5862
5883 5883 5882 5882 5882 5881 5879 5877 5874 5871 5868 5865 5863 5861 5861 5861 5860 5860 5860 5860 5861 5861 5861 5861 5861 5860 5861 5860 5860 5858 5858 5858 5858
5879 5879 5878 5878 5878 5876 5875 5873 5871 5868 5865 5863 5861 5860 5858 5859 5859 5858 5858 5858 5858 5858 5858 5857 5858 5859 5858 5858 5856 5855 5854 5854 5853
5874 5874 5875 5875 5875 5874 5872 5871 5869 5866 5864 5861 5859 5858 5857 5856 5856 5855 5856 5856 5856 5855 5855 5855 5855 5856 5856 5855 5854 5854 5853 5852 5851
5869 5869 5870 5871 5871 5870 5869 5868 5866 5864 5861 5859 5857 5857 5856 5855 5854 5854 5853 5853 5853 5852 5852 5852 5852 5853 5853 5852 5851 5851 5851 5851 5850
5863 5864 5865 5866 5866 5866 5865 5864 5862 5861 5859 5857 5855 5854 5853 5854 5853 5852 5851 5851 5850 5849 5848 5849 5849 5850 5851 5852 5851 5850 5848 5847 5848
5857 5858 5859 5860 5860 5860 5859 5859 5858 5857 5855 5853 5852 5852 5851 5849 5850 5850 5849 5846 5846 5846 5845 5844 5844 5844 5845 5846 5847 5847 5846 5844 5843
5850 5851 5852 5853 5853 5852 5851 5852 5851 5851 5850 5848 5846 5846 5845 5845 5845 5844 5845 5845 5843 5840 5840 5838 5836 5836 5837 5838 5839 5840 5841 5842 5839
5842 5844 5845 5845 5846 5845 5844 5843 5843 5842 5842 5842 5839 5839 5837 5837 5837 5837 5835 5835 5834 5833 5829 5832 5831 5829 5829 5829 5829 5830 5832 5834 5835
5833 5834 5834 5834 5835 5836 5835 5834 5834 5833 5831 5833 5832 5830 5829 5828 5830 5829 5828 5829 5828 5827 5824 5821 5820 5820 5818 5818 5819 5819 5820 5823 5826
5823 5823 5824 5825 5825 5826 5825 5825 5824 5824 5823 5821 5820 5821 5819 5818 5820 5817 5817 5820 5818 5812 5813 5814 5813 5811 5810 5808 5806 5807 5809 5810 5814
5813 5813 5814 5815 5816 5816 5815 5814 5814 5813 5812 5811 5809 5807 5803 5792 5800 5805 5805 5805 5802 5805 5797 5800 5803 5802 5800 5800 5797 5798 5799 5799 5799
5803 5804 5805 5806 5806 5806 5805 5804 5801 5800 5800 5798 5796 5795 5799 5796 5792 5793 5790 5785 5781 5777 5786 5790 5791 5791 5792 5791 5789 5787 5790 5792 5794
5793 5794 5794 5795 5794 5793 5792 5791 5790 5787 5787 5785 5783 5782 5781 5782 5778 5779 5783 5772 5770 5777 5776 5778 5781 5782 5782 5782 5780 5778 5777 5779 5781
5784 5784 5784 5784 5784 5782 5780 5778 5777 5776 5774 5773 5769 5766 5764 5767 5770 5769 5763 5767 5766 5767 5769 5771 5772 5773 5774 5772 5770 5768 5768 5768 5770